K42C Weather Reports


Display with metric or nautical units.
time (UTC)temp
F
wind
direction
speed
MPH
gust
MPH
rain 1hr
in
rain 24hr
in
rain mn
in
humidity
%
barometer
mb
20260904163537 71 15 0.0 0.0 0.01 0.01 0.44 100 977.2
20260904162857 70 15 0.0 0.0 0.01 0.01 0.44 100 977.5
20260904162220 70 15 0.0 0.0 0.01 0.01 0.44 100 977.2
20260904161540 70 15 0.0 0.0 0.01 0.01 0.44 100 977.1
20260904160222 70 15 0.0 0.0 0.01 0.01 0.44 100 977.5
20260904155642 70 15 0.0 0.0 0.04 0.01 0.44 100 977.4
20260904155545 70 15 0.0 0.0 0.04 0.01 0.44 100 977.4
20260904154943 70 15 0.0 0.0 0.04 0.01 0.44 100 977.3
20260904154905 70 15 0.0 0.0 0.04 0.01 0.44 100 977.3
20260904154301 69 15 0.0 0.0 0.04 0.01 0.44 100 977.4
20260904154228 69 15 0.0 0.0 0.04 0.01 0.44 100 977.4
20260904152911 69 15 0.0 0.0 0.04 0.01 0.44 100 977.0
20260904152230 69 15 0.0 0.0 0.04 0.01 0.44 100 977.4
20260904151553 69 15 0.0 0.0 0.04 0.01 0.43 100 977.7
20260904150913 69 15 0.0 0.0 0.04 0.01 0.43 100 977.2
20260904150236 69 15 0.0 0.0 0.04 0.01 0.43 100 976.6
20260904145556 69 15 0.0 0.0 0.08 0.01 0.43 100 976.6
20260904144919 69 15 0.0 0.0 0.08 0.01 0.43 100 976.7
20260904144238 69 15 0.0 0.0 0.08 0.01 0.42 100 976.9
20260904143635 69 15 0.0 0.0 0.08 0.01 0.42 100 976.9
20260904143601 69 15 0.0 0.0 0.08 0.01 0.42 100 976.9
20260904142921 69 15 0.0 0.0 0.08 0.01 0.41 100 977.1
20260904142244 69 15 0.0 0.0 0.08 0.01 0.41 100 976.9
20260904140927 69 15 0.0 0.0 0.08 0.01 0.40 100 977.3
20260904135609 69 354 1.0 8.0 0.09 0.01 0.39 100 977.7
20260904134929 69 11 1.0 6.0 0.09 0.01 0.38 100 977.9
20260904134359 69 232 0.0 0.0 0.09 0.01 0.37 100 977.3
20260904134252 69 232 0.0 0.0 0.09 0.01 0.37 100 977.3
20260904132934 69 232 0.0 0.0 0.09 0.01 0.36 100 975.9
20260904132253 69 195 1.0 0.0 0.09 0.01 0.35 100 975.6
20260904131743 69 228 3.0 0.0 0.09 0.01 0.34 100 976.0
20260904131616 69 228 3.0 0.0 0.09 0.01 0.34 100 976.0
20260904131059 69 169 2.0 0.0 0.09 0.01 0.33 100 975.6
20260904130937 69 169 2.0 0.0 0.09 0.01 0.33 100 975.6
20260904130258 69 183 0.0 6.0 0.09 0.01 0.32 100 975.6
20260904125701 69 186 7.0 0.0 0.11 0.01 0.31 100 975.9
20260904125618 69 186 7.0 0.0 0.11 0.01 0.31 100 975.9
20260904124941 69 187 6.0 7.0 0.11 0.01 0.30 100 976.2
20260904124411 69 190 0.0 0.0 0.11 0.01 0.29 100 976.5
20260904124339 69 190 0.0 0.0 0.11 0.01 0.29 100 976.5
20260904124300 69 190 0.0 0.0 0.11 0.01 0.29 100 976.5
20260904123821 69 190 0.0 0.0 0.11 0.01 0.28 100 977.6
20260904123624 69 190 0.0 0.0 0.11 0.01 0.28 100 977.6
20260904121627 69 1 0.0 0.0 0.11 0.01 0.24 100 978.6
20260904120310 69 1 0.0 0.0 0.11 0.01 0.22 100 978.3
20260904115633 69 1 0.0 0.0 0.06 0.01 0.21 100 978.2
20260904114952 69 1 0.0 0.0 0.06 0.01 0.20 100 977.9
20260904113635 69 1 0.0 0.0 0.06 0.01 0.18 100 978.4
20260904110325 69 1 0.0 0.0 0.06 0.01 0.11 100 978.6
20260904104325 69 1 0.0 0.0 0.03 0.01 0.09 100 978.1
20260904103648 69 1 0.0 0.0 0.03 0.01 0.08 100 977.7
20260904103008 68 1 0.0 0.0 0.03 0.01 0.08 100 977.3
20260904102331 68 1 0.0 0.0 0.03 0.01 0.07 100 977.0
20260904101650 68 1 0.0 0.0 0.03 0.01 0.07 100 976.9
20260904101013 68 1 0.0 0.0 0.03 0.01 0.06 100 976.7
20260904100333 68 1 0.0 0.0 0.03 0.01 0.06 100 976.7
20260904095656 68 1 0.0 0.0 0.02 0.01 0.05 100 976.5
20260904095015 68 1 0.0 0.0 0.02 0.01 0.05 100 976.4
20260904094338 69 1 0.0 0.0 0.02 0.01 0.05 100 976.3
20260904093658 68 1 0.0 0.0 0.02 0.01 0.04 100 976.6
20260904093021 69 359 6.0 7.0 0.02 0.01 0.04 100 977.0
20260904092340 69 318 6.0 5.0 0.02 0.01 0.03 100 977.0
20260904091703 69 349 9.0 10.0 0.02 0.01 0.03 100 976.4
20260904091023 69 172 3.0 4.0 0.02 0.01 0.02 100 975.5
20260904090346 69 174 5.0 6.0 0.02 0.01 0.02 100 975.6
20260904085705 69 179 0.0 0.0 0.00 0.01 0.02 100 976.0
20260904085028 68 42 0.0 0.0 0.00 0.01 0.01 100 975.7
20260904084348 68 195 0.0 0.0 0.00 0.01 0.01 100 976.2
20260904083711 68 141 0.0 0.0 0.00 0.01 0.00 100 976.5
20260904080355 68 141 0.0 0.0 0.00 0.01 0.00 100 976.5
20260904075718 68 141 0.0 0.0 0.00 0.01 0.00 100 976.5
20260904075415 68 141 0.0 0.0 0.00 0.01 0.00 100 976.2
20260904075038 68 141 0.0 0.0 0.00 0.01 0.00 100 976.2
20260904074545 68 141 0.0 0.0 0.00 0.01 0.00 100 976.2
20260904074401 68 141 0.0 0.0 0.00 0.01 0.00 100 976.2
20260904073720 68 141 0.0 0.0 0.00 0.01 0.00 100 976.3
20260904072403 68 141 0.0 0.0 0.00 0.01 0.00 100 976.6
20260904071726 68 141 1.0 0.0 0.00 0.01 0.00 100 976.7
20260904071045 68 359 0.0 0.0 0.00 0.01 0.00 100 977.0
20260904070408 68 359 0.0 0.0 0.00 0.01 0.00 100 976.8
20260904065728 68 359 0.0 0.0 0.00 0.01 0.00 100 977.2
20260904065049 67 359 0.0 0.0 0.00 0.01 0.00 100 977.4
20260904064410 67 359 0.0 0.0 0.00 0.01 0.00 100 977.5
20260904063733 67 359 0.0 0.0 0.00 0.01 0.00 100 977.5
20260904063053 67 359 0.0 0.0 0.00 0.01 0.00 100 977.3
20260904062414 67 359 0.0 0.0 0.00 0.01 0.00 100 977.2
20260904061057 67 359 0.0 0.0 0.00 0.01 0.00 100 977.2
20260904060417 67 359 0.0 0.0 0.00 0.01 0.00 100 977.5
20260904055416 67 359 0.0 0.0 0.00 0.01 0.00 100 977.5
20260904055100 67 359 0.0 0.0 0.00 0.01 0.00 100 977.5
20260904053942 68 359 0.0 0.0 0.00 0.01 0.00 100 977.6
20260904053742 68 359 0.0 0.0 0.00 0.01 0.00 100 977.6
20260904053105 68 359 0.0 0.0 0.00 0.01 0.00 100 977.6
20260904051747 68 359 0.0 0.0 0.00 0.01 0.00 100 978.0
20260904051226 68 359 0.0 0.0 0.00 0.01 0.00 100 978.1
20260904051106 68 359 0.0 0.0 0.00 0.01 0.00 100 978.1
20260904050430 68 359 0.0 0.0 0.00 0.01 0.00 100 978.2
20260904045749 68 359 0.0 0.0 0.00 0.01 0.00 100 978.0
20260904045112 67 359 0.0 0.0 0.00 0.01 0.00 100 977.9
20260904044503 68 359 0.0 0.0 0.00 0.01 0.00 100 977.6
20260904044432 68 359 0.0 0.0 0.00 0.01 0.00 100 977.6
20260904043114 68 359 0.0 0.0 0.00 0.01 0.00 100 977.5
20260904041756 68 359 0.0 0.0 0.00 0.01 0.00 100 977.7
20260904035121 68 359 0.0 0.0 0.00 0.01 0.01 100 978.1
20260904033802 68 359 0.0 0.0 0.00 0.01 0.01 100 978.1
20260904030523 69 359 0.0 0.0 0.00 0.01 0.01 100 978.0
20260904030451 69 359 0.0 0.0 0.00 0.01 0.01 100 978.0
20260904025810 69 359 0.0 0.0 0.00 0.01 0.01 100 977.7
20260904025133 69 359 0.0 0.0 0.00 0.01 0.01 100 977.7
20260904023135 70 359 0.0 0.0 0.00 0.01 0.01 100 977.7
20260904021140 70 359 0.0 0.0 0.00 0.01 0.01 100 977.6
20260904015140 71 359 0.0 0.0 0.00 0.01 0.01 100 977.4
20260904014504 71 359 0.0 0.0 0.00 0.01 0.01 100 977.4
20260904012506 72 359 0.0 0.0 0.00 0.01 0.01 100 977.0
20260904011828 72 359 0.0 0.0 0.00 0.01 0.01 100 977.2
20260904010511 73 359 0.0 0.0 0.00 0.01 0.01 100 976.8
20260904005903 73 359 0.0 0.0 0.00 0.01 0.01 100 976.7
20260904005830 73 359 0.0 0.0 0.00 0.01 0.01 100 976.7
20260904005325 73 359 0.0 0.0 0.00 0.01 0.01 100 976.6
20260904005152 73 359 0.0 0.0 0.00 0.01 0.01 100 976.6
20260904004512 74 359 0.0 0.0 0.00 0.01 0.01 99 976.4
20260904003154 74 359 0.0 0.0 0.00 0.01 0.01 98 976.3
20260904002517 74 359 0.0 0.0 0.00 0.01 0.01 98 976.2
20260904001159 75 359 0.0 0.0 0.00 0.01 0.01 97 976.0
20260903235842 75 17 0.0 0.0 0.00 0.01 0.01 97 976.0
20260903233843 76 1 0.0 0.0 0.00 0.01 0.01 95 975.8
20260903233245 77 280 1.0 0.0 0.00 0.01 0.01 94 975.4
20260903233206 77 280 1.0 0.0 0.00 0.01 0.01 94 975.4
20260903232557 77 359 0.0 0.0 0.00 0.01 0.01 93 975.1
20260903232525 77 359 0.0 0.0 0.00 0.01 0.01 93 975.1
20260903231848 78 359 0.0 5.0 0.00 0.01 0.01 92 974.8
20260903230530 78 215 4.0 5.0 0.00 0.01 0.01 91 974.7
20260903225944 78 359 0.0 0.0 0.00 0.01 0.01 90 974.6
20260903225849 78 359 0.0 0.0 0.00 0.01 0.01 90 974.6
20260903225213 79 359 0.0 0.0 0.00 0.01 0.01 89 974.6
20260903224532 79 359 1.0 0.0 0.00 0.01 0.01 88 974.4
20260903223938 80 359 1.0 0.0 0.00 0.01 0.01 86 974.4
20260903223854 80 359 1.0 0.0 0.00 0.01 0.01 86 974.4
20260903223214 80 194 6.0 9.0 0.00 0.01 0.01 82 974.4
20260903222537 80 195 6.0 5.0 0.00 0.01 0.01 80 974.4
20260903221856 81 165 6.0 5.0 0.00 0.01 0.01 78 974.3
20260903221219 81 176 6.0 5.0 0.00 0.01 0.01 78 974.3
20260903220538 81 1 2.0 0.0 0.00 0.01 0.01 78 974.1
20260903215257 81 153 6.0 4.0 0.00 0.01 0.01 76 974.3
20260903215220 81 153 6.0 4.0 0.00 0.01 0.01 76 974.3
20260903214543 80 359 0.0 0.0 0.00 0.01 0.01 78 974.3
20260903213903 80 359 0.0 0.0 0.00 0.01 0.01 77 974.2
20260903213225 80 0 1.0 0.0 0.00 0.01 0.01 77 974.1
20260903212545 80 359 0.0 0.0 0.00 0.01 0.01 78 974.0
20260903211908 81 172 6.0 6.0 0.00 0.01 0.01 76 974.2
20260903211227 81 163 6.0 6.0 0.00 0.01 0.01 76 974.2
20260903210550 80 173 2.0 0.0 0.00 0.01 0.01 78 974.3
20260903205909 80 176 3.0 3.0 0.00 0.01 0.01 79 974.2
20260903205232 80 124 0.0 0.0 0.00 0.01 0.01 80 974.2
20260903204552 80 128 1.0 0.0 0.00 0.01 0.01 80 974.3
20260903203915 79 131 0.0 0.0 0.00 0.01 0.01 82 974.6
20260903203234 78 98 0.0 0.0 0.00 0.01 0.01 83 974.8
20260903202557 78 128 3.0 7.0 0.00 0.01 0.01 83 975.1
20260903201916 78 177 5.0 0.0 0.00 0.01 0.01 85 975.5
20260903201239 78 113 4.0 0.0 0.00 0.01 0.01 86 975.6
20260903200702 77 118 6.0 7.0 0.00 0.01 0.01 87 975.7
20260903200559 77 118 6.0 7.0 0.00 0.01 0.01 87 975.7
20260903195922 77 111 7.0 6.0 0.00 0.01 0.01 88 976.0
20260903194604 76 110 7.0 5.0 0.00 0.01 0.01 90 976.5
20260903191929 76 73 4.0 3.0 0.00 0.01 0.01 90 976.8
20260903190612 76 66 0.0 0.0 0.00 0.01 0.01 89 977.3
20260903185931 76 66 0.0 0.0 0.00 0.01 0.01 89 977.4
20260903185254 76 66 0.0 0.0 0.00 0.01 0.01 88 977.4
20260903184614 76 79 4.0 4.0 0.00 0.01 0.01 88 977.2
20260903183937 76 87 5.0 3.0 0.00 0.01 0.01 89 977.1
20260903183256 76 65 4.0 4.0 0.00 0.01 0.01 89 977.0
20260903182619 76 35 5.0 4.0 0.00 0.01 0.01 88 977.2
20260903181938 76 359 5.0 8.0 0.00 0.01 0.01 89 977.4
20260903181301 75 3 6.0 7.0 0.00 0.01 0.01 90 977.3
20260903180621 75 342 7.0 4.0 0.00 0.01 0.01 91 977.5
20260903175306 76 342 6.0 8.0 0.00 0.01 0.01 91 977.4
20260903174627 76 13 6.0 5.0 0.00 0.01 0.01 92 977.1
20260903174021 76 4 9.0 7.0 0.00 0.01 0.01 92 977.2
20260903173946 76 4 9.0 7.0 0.00 0.01 0.01 92 977.2
20260903173347 77 24 11.0 12.0 0.00 0.01 0.01 94 976.8
20260903173309 77 24 11.0 12.0 0.00 0.01 0.01 94 976.8
20260903172629 76 359 13.0 9.0 0.00 0.01 0.01 97 976.7
20260903172039 76 339 11.0 8.0 0.00 0.01 0.01 98 976.6
20260903171952 76 339 11.0 8.0 0.00 0.01 0.01 98 976.6
20260903171311 76 359 14.0 19.0 0.00 0.01 0.01 97 976.5
20260903170716 78 319 8.0 6.0 0.00 0.01 0.01 95 976.6
20260903170634 78 319 8.0 6.0 0.00 0.01 0.01 95 976.6
20260903165954 80 340 7.0 5.0 0.00 0.01 0.01 97 976.6
20260903165317 80 240 4.0 0.0 0.00 0.01 0.01 98 976.1
20260903164636 79 179 0.0 3.0 0.00 0.01 0.01 98 975.9